Temperature
22 21 21 20 20 20 19 19 18 18 17 17 16 16 15 15 14 14 14 13 13 13 13 13 13 13 13 13 13 13 13 14 14 14 15 15 15 15 15 15 15 16 16
22 21 21 20 20 20 19 19 18 18 17 17 16 16 15 15 14 14 14 13 13 13 13 13 13 13 13 13 13 13 13 13 14 14 15 16 16 15 15 15 15 16 16
22 21 21 20 20 20 20 19 18 18 18 17 16 16 15 15 14 14 14 14 13 13 13 13 13 13 13 13 13 13 13 13 14 14 14 15 16 16 15 15 15 15 15
21 21 20 20 20 20 20 19 19 18 17 17 16 16 15 15 15 14 14 14 13 13 13 13 13 13 13 13 13 13 13 13 13 14 14 14 14 15 15 15 15 15 15
21 21 20 20 20 20 20 19 18 18 17 17 16 16 15 15 15 14 14 14 14 13 13 13 13 13 13 13 13 13 13 13 13 13 14 14 14 15 15 15 15 15 15
20 20 20 20 20 20 20 19 19 18 18 17 16 16 15 15 15 14 14 14 14 13 13 13 13 13 13 13 13 13 13 13 13 13 13 14 14 14 15 15 15 15 15
20 19 19 19 20 20 20 19 19 18 18 17 17 16 16 15 15 14 14 14 14 14 13 13 13 13 13 13 13 13 13 13 13 13 13 13 14 14 14 14 15 14 14
19 18 19 19 19 19 19 19 19 18 18 17 16 16 16 15 15 14 14 14 14 14 13 13 13 13 13 13 13 13 13 13 13 13 13 13 13 13 14 14 14 15 15
18 17 18 18 18 19 19 19 18 18 17 17 17 16 16 15 15 15 14 14 14 14 13 13 13 13 13 13 13 13 13 13 13 13 13 13 13 13 13 13 14 14 15
17 17 17 17 18 18 18 18 18 17 17 17 16 16 16 16 15 15 14 14 14 14 14 14 13 13 13 13 13 13 13 13 13 13 13 13 13 13 13 13 13 13 14
17 17 17 17 17 17 18 18 17 17 17 17 16 16 16 16 15 15 15 14 14 14 14 14 14 14 13 13 13 13 13 13 13 13 13 13 13 13 13 13 13 13 13
17 17 17 17 17 17 17 17 17 17 17 16 16 16 16 16 15 15 15 14 14 14 14 14 14 14 13 13 13 13 13 13 13 13 13 13 13 13 13 13 13 13 13
16 16 16 17 17 17 17 17 16 17 17 16 16 16 15 15 15 15 15 14 14 14 14 14 14 14 13 13 13 13 13 13 13 13 13 13 13 13 13 13 13 13 13
16 16 16 16 16 16 16 16 16 16 16 16 16 15 15 15 15 15 15 14 14 14 14 14 14 14 13 13 13 13 13 13 13 13 13 13 13 13 13 13 13 13 13
16 15 15 15 15 15 16 15 15 16 15 15 15 15 15 15 15 15 15 15 14 14 14 14 14 14 14 13 13 13 13 13 13 13 13 13 13 13 13 13 13 12 13
15 15 15 15 15 15 15 15 15 15 15 15 15 15 15 15 15 15 15 14 15 14 14 14 14 14 14 14 14 13 13 13 13 13 13 13 13 13 13 13 13 13 12
14 14 14 14 14 14 14 14 14 14 14 14 14 14 14 14 14 14 14 14 14 14 14 14 14 14 14 14 14 14 13 13 13 13 13 13 13 13 12 12 13 12 12
14 14 14 14 14 14 14 14 14 14 14 14 14 14 14 14 14 14 14 14 14 14 14 14 14 13 14 14 14 13 13 13 13 13 13 13 12 12 12 12 12 12 12
13 13 13 13 14 14 14 14 13 13 13 13 13 13 13 13 13 13 13 13 13 13 13 14 14 13 13 14 13 13 13 12 12 13 13 13 12 12 12 12 12 12 12
13 13 13 13 13 13 13 13 13 13 13 13 13 13 13 13 13 13 13 13 13 13 13 13 13 13 13 13 13 13 12 12 12 12 12 13 13 13 12 12 11 11 12
13 13 12 13 12 12 12 12 12 12 12 12 12 12 13 13 13 13 13 13 12 12 12 13 13 13 13 13 13 13 12 12 12 12 12 12 13 13 12 12 11 11 11
12 12 12 12 12 12 12 12 12 12 12 12 12 12 12 12 12 12 12 12 12 12 12 12 12 12 12 13 13 13 12 12 12 12 12 12 12 12 12 12 11 11 11
12 11 11 11 11 11 11 11 11 11 11 11 12 12 12 12 12 12 12 12 12 12 12 12 12 12 12 12 12 12 12 12 12 12 12 12 12 12 12 12 11 11 11
11 11 11 11 10 10 10 10 10 10 10 11 11 11 11 11 11 11 11 11 11 11 11 11 11 12 12 12 12 12 12 12 12 12 12 12 12 11 11 11 11 11 10
11 10 10 10 10 10 10 10 10 10 10 10 10 11 11 11 11 11 11 11 11 11 10 10 11 11 11 11 11 11 11 11 11 11 11 11 11 11 10 10 10 10 10
10 10 10 10 9 9 9 9 9 9 9 9 9 10 10 10 10 10 10 10 10 10 10 10 10 10 10 11 11 11 11 11 11 10 10 10 10 10 10 10 10 10 10
Wind_Speed
4 5 7 8 9 9 9 8 8 7 5 4 3 2 1 1 1 1 2 3 3 4 4 5 4 4 4 5 5 5 4 3 3 3 3 2 2 2 1 2 3 3 2
2 4 6 8 9 10 9 9 8 7 6 4 3 2 1 2 1 2 2 3 3 4 4 5 4 4 4 4 5 4 4 3 2 3 3 2 3 2 1 1 2 2 2
1 2 4 6 8 9 9 8 8 8 7 5 3 2 2 2 2 2 2 2 3 4 4 5 4 4 4 4 4 4 4 4 2 2 2 2 1 1 2 1 1 1 1
1 1 3 4 6 7 8 8 8 7 7 6 5 4 3 2 2 2 2 3 2 3 4 4 4 4 4 4 4 4 4 4 3 1 2 3 3 2 1 2 1 1 1
3 1 1 2 3 5 7 7 7 7 6 6 5 5 4 3 2 2 2 3 2 3 3 4 4 4 3 4 4 4 4 3 3 3 2 2 2 3 2 1 1 1 1
5 3 2 1 1 3 5 6 7 6 6 6 6 6 4 4 3 3 3 3 2 2 2 3 3 3 3 3 4 4 3 3 3 2 2 2 2 2 2 2 2 1 1
7 6 4 2 1 2 4 6 7 7 7 7 7 6 5 5 5 4 3 4 3 2 2 3 3 3 3 3 3 3 3 3 3 2 2 2 3 3 3 2 1 1 1
9 7 6 4 2 1 3 5 6 6 6 7 7 6 6 5 4 5 4 4 4 3 3 3 3 3 3 3 3 3 3 3 2 2 3 2 2 3 2 2 2 2 1
10 9 8 6 4 2 0 3 5 5 5 6 6 6 6 6 5 5 5 5 4 4 4 4 4 3 3 3 3 2 3 2 2 3 3 3 2 2 2 2 2 2 2
10 10 8 7 6 4 2 0 2 4 5 5 6 5 6 6 6 6 6 6 6 5 5 5 5 4 4 3 3 3 3 3 2 2 3 3 3 2 2 3 2 3 3
10 9 8 8 6 5 4 3 1 2 3 5 5 6 6 6 7 6 6 6 6 6 6 6 6 5 5 4 4 4 3 4 3 3 3 3 3 3 3 2 3 3 3
9 9 9 8 7 6 5 3 3 2 3 4 5 5 5 6 7 7 7 7 7 7 7 6 6 6 6 5 5 5 5 5 4 4 4 3 2 3 3 3 3 3 3
9 9 9 9 8 7 5 4 4 3 3 3 4 5 6 6 7 7 7 7 8 8 7 7 7 7 6 6 6 6 6 6 5 5 5 4 4 4 3 4 4 3 3
10 10 9 9 9 7 6 5 5 4 3 3 4 5 6 6 7 7 7 8 8 8 8 8 8 8 7 8 7 7 7 7 6 6 5 5 5 5 5 4 4 4 4
11 11 10 10 9 9 7 6 6 5 4 3 4 5 6 6 6 7 7 8 8 8 9 8 8 8 8 7 8 8 8 8 7 7 6 6 4 4 4 4 4 4 4
11 11 11 11 11 10 9 7 7 6 5 4 5 5 6 6 6 7 7 8 8 8 8 9 9 9 8 5 6 9 9 9 9 8 7 6 6 6 6 4 4 4 4
9 10 11 11 11 10 10 9 7 6 5 5 6 6 6 6 7 7 7 8 8 8 9 9 10 10 9 7 8 10 10 10 9 9 8 6 5 6 6 7 8 6 5
8 9 10 10 10 10 10 9 8 7 6 6 7 7 7 7 7 8 8 8 8 8 9 10 10 10 10 8 9 10 12 11 10 10 9 8 8 7 7 7 6 6 5
7 7 9 9 10 11 11 10 9 8 8 8 9 8 8 8 8 9 9 9 9 9 9 10 10 11 11 10 10 11 9 9 10 9 9 9 8 6 6 8 7 6 5
6 7 8 9 10 11 10 10 10 10 10 10 10 10 10 9 10 10 10 9 8 9 9 10 10 11 12 9 10 13 9 10 9 8 8 7 7 6 8 9 8 8 7
6 7 7 8 9 10 11 11 11 11 11 11 11 11 11 11 11 10 9 9 9 9 10 10 10 11 11 10 11 12 10 10 10 9 8 7 9 9 9 9 8 6 5
6 7 7 8 9 10 11 11 12 13 13 12 12 12 12 11 10 10 10 9 9 10 10 10 10 9 9 9 10 12 13 11 11 9 8 7 11 11 9 8 6 5 5
5 6 7 8 9 10 11 12 13 13 13 13 13 12 13 11 10 10 10 9 9 9 9 9 9 9 8 8 9 12 13 13 11 9 6 6 11 11 9 8 8 8 7
5 6 8 9 10 11 11 12 13 14 14 14 13 13 12 11 10 9 9 9 9 9 10 10 10 10 9 8 7 7 9 11 11 9 7 9 9 8 6 8 9 8 7
5 6 8 9 11 11 12 12 13 14 14 14 13 13 12 12 11 10 9 11 11 10 11 11 11 11 11 10 8 8 9 9 9 9 9 9 9 10 9 8 8 8 8
6 7 8 10 11 12 13 13 13 14 15 14 13 12 11 11 11 11 11 11 13 13 15 15 15 14 13 10 11 12 11 10 11 10 11 11 11 11 11 10 10 9 9
Wind_Direction
224 211 205 199 195 196 197 191 190 183 180 179 200 217 224 259 287 317 335 323 325 329 330 323 331 329 331 330 328 322 311 302 302 283 256 225 225 237 223 243 238 207 202
227 200 202 197 197 194 197 194 192 187 187 186 196 214 238 269 291 284 287 308 321 325 324 325 320 323 321 326 330 327 317 313 302 296 280 240 196 206 207 220 231 217 179
271 186 196 199 200 198 196 195 193 187 189 188 186 185 199 240 236 249 278 300 312 319 322 324 320 323 322 333 330 326 322 316 310 307 297 285 261 202 187 198 214 185 175
352 200 195 200 205 199 195 196 192 192 190 191 201 210 238 269 289 294 286 281 293 312 315 314 315 320 326 328 327 336 319 307 306 299 289 301 318 271 206 186 195 186 178
1 352 217 206 202 191 190 194 189 192 191 197 201 220 241 266 279 276 273 288 298 301 306 308 309 315 321 324 327 330 323 314 311 310 298 290 281 274 275 228 204 190 174
22 25 36 77 156 174 180 184 187 189 190 199 209 223 240 252 263 266 278 282 286 291 298 297 300 307 316 319 322 320 319 319 319 310 304 305 302 305 284 257 227 208 163
32 35 36 44 94 168 185 186 189 192 194 203 215 224 235 246 254 264 265 277 290 292 303 292 295 304 309 312 312 307 310 304 304 307 309 312 311 311 300 279 257 236 220
35 36 32 30 36 149 190 194 198 201 201 211 219 226 231 243 256 260 271 273 287 294 297 288 290 294 294 292 292 297 302 303 295 298 300 297 304 307 309 300 289 258 226
35 34 33 32 30 25 246 212 206 211 213 221 226 229 234 241 250 256 259 269 275 279 278 275 275 281 278 279 279 290 297 291 293 295 290 285 287 290 296 295 284 277 263
33 34 33 31 32 33 29 331 227 230 228 230 233 235 240 241 248 255 258 263 269 268 265 270 270 271 266 260 266 276 292 281 270 277 289 282 272 278 281 278 272 274 278
31 30 29 29 29 33 38 35 333 261 250 244 240 238 240 243 245 249 256 258 261 258 259 263 269 269 262 255 244 258 265 272 274 261 266 267 269 269 266 259 257 258 261
32 30 27 28 27 24 20 16 358 319 281 263 253 248 248 246 249 251 255 258 259 259 260 260 262 263 260 257 251 250 253 259 269 272 268 270 253 246 254 248 245 245 250
33 30 27 24 19 13 8 1 351 336 315 282 264 259 256 254 255 260 262 262 262 261 258 257 256 256 257 255 251 249 250 252 256 260 262 265 263 248 235 238 239 235 233
33 28 23 20 13 7 2 357 349 342 330 306 279 272 271 267 265 264 266 265 264 264 262 259 256 255 254 252 249 249 250 252 253 253 256 259 259 258 247 236 235 233 227
29 23 17 13 9 5 359 355 347 341 330 313 297 289 286 280 275 271 266 265 264 263 263 261 256 254 253 252 252 250 249 249 250 247 247 248 258 293 279 263 242 226 223
23 18 14 10 4 0 355 349 343 337 327 315 307 300 293 288 281 277 272 268 264 264 263 259 258 254 249 234 243 254 252 249 247 246 243 236 223 220 222 242 268 281 244
18 13 10 7 2 357 351 345 339 332 325 318 315 308 298 291 286 282 275 268 263 261 261 259 257 255 247 221 227 238 251 251 250 247 242 237 228 221 223 206 206 222 245
11 8 4 2 359 356 351 344 339 333 325 321 315 313 304 295 290 285 279 274 271 263 259 260 258 256 251 228 228 230 241 246 245 242 240 236 231 225 227 223 216 215 210
5 2 358 356 357 356 351 344 341 336 329 324 316 311 304 297 291 284 279 277 275 270 262 260 259 256 249 226 224 230 241 240 239 237 237 238 233 196 206 224 217 209 202
4 359 355 355 356 353 348 345 343 338 333 325 316 311 304 295 288 284 282 279 273 271 270 263 260 258 257 232 221 229 238 238 235 231 229 226 234 195 196 217 217 216 209
0 355 354 354 351 346 344 342 341 338 330 322 315 310 305 297 289 285 282 279 275 273 270 267 261 259 257 239 222 225 238 239 236 230 225 216 191 197 200 223 225 216 214
355 351 348 348 345 343 340 336 336 332 327 321 314 310 306 300 294 289 283 279 275 271 268 268 265 260 255 248 228 222 233 250 240 234 229 209 177 187 197 209 195 184 204
343 342 340 338 340 342 339 332 330 327 323 320 316 311 306 300 294 289 286 282 275 270 270 268 267 264 258 246 230 224 227 233 239 238 225 188 169 178 191 191 188 194 207
333 333 333 333 334 335 332 329 327 325 321 319 318 315 310 305 298 291 284 280 277 273 271 269 268 266 260 253 241 234 230 222 227 231 203 178 174 192 191 182 193 209 212
317 321 324 325 324 325 325 326 326 325 321 318 318 317 314 306 299 290 283 279 275 273 274 273 270 266 261 253 247 247 238 229 221 210 208 202 196 199 202 203 199 201 200
306 312 316 316 318 321 321 323 323 322 320 319 319 316 312 307 301 296 291 275 267 268 264 264 266 268 267 261 241 244 247 232 209 208 215 209 205 204 202 201 199 199 200
Height
1518 1519 1521 1522 1524 1526 1527 1528 1529 1530 1530 1530 1530 1530 1530 1529 1528 1527 1525 1524 1523 1521 1520 1519 1517 1515 1514 1513 1512 1510 1510 1509 1509 1509 1509 1508 1508 1509 1509 1509 1510 1511 1512
1516 1517 1519 1520 1522 1524 1526 1527 1528 1529 1529 1529 1529 1529 1528 1528 1527 1526 1525 1524 1522 1521 1520 1518 1517 1515 1513 1512 1511 1509 1509 1508 1508 1508 1508 1508 1509 1507 1508 1508 1509 1510 1511
1515 1516 1517 1519 1521 1522 1524 1525 1526 1527 1527 1527 1527 1527 1527 1527 1527 1526 1525 1523 1522 1520 1519 1518 1516 1515 1514 1512 1511 1509 1508 1508 1508 1508 1508 1508 1507 1507 1508 1507 1508 1508 1509
1515 1516 1516 1517 1519 1521 1522 1524 1525 1526 1526 1526 1526 1527 1527 1527 1527 1526 1524 1523 1521 1520 1518 1517 1516 1515 1513 1512 1511 1510 1508 1507 1507 1507 1507 1508 1507 1507 1507 1507 1507 1508 1508
1515 1515 1516 1516 1518 1519 1520 1522 1523 1524 1524 1525 1525 1525 1526 1526 1525 1524 1524 1523 1521 1519 1518 1516 1515 1514 1513 1512 1510 1509 1508 1507 1507 1507 1507 1507 1506 1506 1506 1506 1507 1507 1507
1515 1515 1515 1515 1516 1517 1518 1520 1521 1522 1522 1523 1523 1524 1524 1524 1524 1523 1523 1522 1521 1519 1518 1516 1515 1514 1512 1511 1510 1509 1508 1507 1506 1506 1506 1506 1506 1506 1506 1506 1506 1506 1507
1515 1514 1514 1514 1515 1516 1517 1518 1519 1520 1521 1522 1522 1523 1523 1523 1523 1523 1522 1521 1520 1519 1517 1516 1514 1513 1512 1511 1509 1508 1507 1507 1506 1505 1505 1505 1505 1505 1505 1505 1505 1505 1506
1516 1515 1515 1514 1514 1515 1516 1517 1518 1519 1520 1520 1521 1521 1521 1521 1521 1521 1520 1520 1519 1518 1516 1515 1514 1512 1511 1510 1509 1508 1507 1506 1506 1505 1504 1504 1504 1504 1504 1505 1505 1505 1505
1518 1517 1516 1515 1515 1514 1515 1516 1517 1518 1518 1519 1519 1519 1520 1519 1519 1519 1519 1518 1517 1516 1515 1514 1513 1512 1510 1509 1509 1508 1507 1505 1505 1504 1504 1503 1503 1503 1503 1503 1504 1505 1504
1520 1519 1517 1516 1515 1515 1514 1515 1515 1516 1516 1517 1517 1518 1518 1517 1517 1517 1517 1516 1515 1514 1513 1513 1512 1511 1510 1509 1508 1507 1506 1505 1504 1503 1502 1502 1503 1502 1502 1502 1503 1503 1504
1522 1521 1519 1518 1516 1515 1515 1514 1514 1514 1514 1515 1515 1515 1515 1515 1515 1514 1514 1513 1513 1512 1511 1511 1510 1509 1509 1508 1507 1506 1505 1504 1503 1502 1502 1501 1500 1500 1501 1501 1501 1501 1502
1524 1522 1520 1518 1517 1515 1515 1514 1513 1513 1513 1513 1513 1513 1513 1513 1512 1512 1511 1511 1510 1510 1509 1509 1508 1508 1507 1506 1505 1504 1503 1503 1502 1501 1501 1500 1499 1499 1499 1499 1499 1500 1500
1524 1522 1520 1518 1517 1515 1514 1514 1513 1512 1511 1511 1511 1511 1511 1510 1510 1509 1509 1508 1508 1507 1506 1506 1505 1505 1504 1504 1503 1502 1502 1501 1500 1500 1499 1499 1498 1498 1497 1497 1498 1498 1498
1525 1523 1521 1519 1517 1515 1514 1513 1512 1511 1510 1509 1509 1508 1508 1508 1507 1507 1506 1505 1505 1504 1503 1503 1502 1502 1501 1500 1500 1500 1499 1499 1498 1498 1497 1497 1496 1496 1496 1496 1496 1496 1496
1525 1523 1521 1519 1517 1515 1513 1512 1511 1509 1508 1508 1507 1506 1506 1505 1504 1503 1502 1502 1501 1500 1499 1499 1498 1498 1497 1497 1497 1496 1496 1496 1495 1495 1494 1494 1493 1493 1493 1493 1494 1494 1494
1525 1524 1521 1519 1517 1515 1513 1511 1510 1508 1507 1506 1505 1504 1503 1502 1501 1500 1499 1498 1497 1496 1496 1495 1494 1493 1493 1492 1492 1492 1492 1492 1492 1492 1491 1491 1490 1490 1490 1490 1490 1491 1492
1526 1524 1522 1519 1517 1515 1512 1510 1508 1507 1506 1504 1503 1502 1500 1499 1497 1496 1495 1494 1493 1492 1491 1490 1489 1489 1489 1488 1488 1488 1488 1488 1488 1488 1488 1487 1487 1487 1487 1487 1487 1487 1488
1526 1524 1522 1519 1517 1514 1512 1509 1507 1505 1504 1502 1500 1499 1497 1495 1494 1492 1491 1490 1489 1488 1486 1485 1485 1484 1483 1483 1483 1483 1483 1483 1483 1483 1483 1483 1483 1483 1484 1484 1485 1485 1485
1525 1523 1521 1519 1516 1513 1510 1508 1506 1504 1502 1499 1498 1496 1494 1492 1490 1488 1487 1485 1484 1483 1481 1480 1479 1478 1477 1477 1477 1478 1478 1478 1478 1478 1478 1479 1479 1479 1479 1480 1481 1482 1482
1523 1521 1519 1517 1515 1512 1509 1507 1504 1502 1499 1497 1495 1493 1490 1488 1486 1484 1483 1481 1479 1478 1476 1475 1474 1473 1472 1472 1471 1472 1472 1473 1473 1473 1473 1473 1474 1474 1475 1476 1477 1478 1479
1521 1519 1518 1515 1513 1510 1507 1505 1502 1499 1497 1494 1491 1489 1486 1484 1482 1480 1478 1476 1474 1473 1471 1470 1468 1467 1466 1466 1465 1466 1466 1467 1467 1468 1468 1468 1468 1469 1470 1471 1473 1474 1475
1519 1517 1515 1513 1510 1508 1505 1503 1500 1497 1493 1490 1487 1484 1482 1480 1477 1475 1473 1471 1469 1467 1465 1464 1462 1461 1460 1460 1459 1459 1460 1461 1462 1462 1462 1463 1463 1464 1466 1467 1468 1469 1471
1517 1515 1513 1510 1508 1505 1502 1499 1496 1493 1489 1486 1483 1480 1477 1475 1472 1470 1468 1466 1464 1462 1460 1459 1457 1455 1455 1454 1453 1453 1453 1454 1455 1456 1457 1457 1458 1459 1461 1462 1463 1465 1466
1514 1512 1510 1507 1505 1502 1499 1496 1492 1489 1486 1482 1479 1476 1472 1469 1467 1464 1462 1460 1458 1457 1455 1453 1451 1449 1448 1448 1447 1446 1446 1447 1448 1449 1450 1452 1453 1454 1456 1457 1458 1460 1462
1511 1509 1507 1504 1501 1498 1495 1492 1489 1485 1482 1478 1475 1471 1468 1464 1461 1458 1456 1454 1452 1451 1448 1446 1445 1443 1441 1441 1441 1440 1440 1441 1442 1443 1444 1445 1446 1448 1450 1452 1453 1454 1456
1507 1505 1503 1500 1497 1494 1491 1488 1485 1481 1478 1474 1470 1466 1463 1459 1456 1452 1449 1446 1445 1442 1440 1439 1437 1435 1435 1434 1433 1433 1433 1434 1435 1436 1436 1438 1439 1441 1443 1445 1447 1449 1450